Location: Newark
(22.3060°N, 114.2134°E)
Time: 23:11:15
(UTC+00:00)

Vanguard 2 - Pass Details

Date: 10 August 2021
Orbit: 553 x 2937 km, 32.9° (Epoch: 26 September)

Event Time Altitude Azimuth Distance (km) Brightness Sun altitude
Rises 20:58:37 0° 302° (WNW) 2,782 - -13.9°
Exits shadow 20:59:38 - 306° (NW) 2,390 9.8 -13.7°
Reaches altitude 10° 21:01:13 10° 317° (NW) 1,822 9.3 -13.4°
Maximum altitude 21:04:28 24° 13° (NNE) 1,187 8.9 -12.7°
Drops below altitude 10° 21:07:59 10° 69° (ENE) 1,983 11.2 -11.9°
Sets 21:10:57 0° 83° (E) 3,099 12.4 -11.3°
